Time,TemperatureF,DewpointF,PressureIn,WindDirection,WindDirectionDegrees,WindSpeedMPH,WindSpeedGustMPH,Humidity,HourlyPrecipIn,Conditions,Clouds,dailyrainin,SoftwareType,DateUTC
2013-05-25 00:02:00,69.2,65.2,30.08,ESE,113,12.0,25.0,87,0.00,,,0.00,Wunderground v.1.15,2013-05-25 05:02:00,
2013-05-25 00:12:00,68.9,64.9,30.09,SE,141,10.0,25.0,87,0.00,,,0.00,Wunderground v.1.15,2013-05-25 05:12:00,
2013-05-25 00:22:00,68.6,64.9,30.09,SE,136,10.0,10.0,88,0.00,,,0.00,Wunderground v.1.15,2013-05-25 05:22:00,
2013-05-25 00:32:00,68.4,64.7,30.09,SE,132,9.0,25.0,88,0.00,,,0.00,Wunderground v.1.15,2013-05-25 05:32:00,
2013-05-25 00:42:00,68.4,64.7,30.09,SE,135,8.0,25.0,88,0.00,,,0.00,Wunderground v.1.15,2013-05-25 05:42:00,
2013-05-25 00:52:00,68.4,64.7,30.09,SSE,153,9.0,25.0,88,0.00,,,0.00,Wunderground v.1.15,2013-05-25 05:52:00,
2013-05-25 01:02:00,68.3,64.6,30.09,South,184,9.0,9.0,88,0.00,,,0.00,Wunderground v.1.15,2013-05-25 06:02:00,
2013-05-25 01:12:00,68.2,64.5,30.09,ESE,114,8.0,25.0,88,0.00,,,0.00,Wunderground v.1.15,2013-05-25 06:12:00,
2013-05-25 01:21:00,68.1,64.4,30.09,SSE,150,8.0,25.0,88,0.00,,,0.00,Wunderground v.1.15,2013-05-25 06:21:00,
2013-05-25 01:31:00,67.9,64.2,30.08,SE,144,8.0,25.0,88,0.00,,,0.00,Wunderground v.1.15,2013-05-25 06:31:00,
2013-05-25 01:41:00,67.8,64.4,30.08,SE,138,9.0,9.0,89,0.00,,,0.00,Wunderground v.1.15,2013-05-25 06:41:00,
2013-05-25 01:52:00,67.7,64.3,30.08,South,169,9.0,9.0,89,0.00,,,0.00,Wunderground v.1.15,2013-05-25 06:52:00,
2013-05-25 02:02:00,67.6,64.2,30.07,SE,136,9.0,9.0,89,0.00,,,0.00,Wunderground v.1.15,2013-05-25 07:02:00,
2013-05-25 02:12:00,67.6,64.2,30.07,SSE,155,9.0,9.0,89,0.00,,,0.00,Wunderground v.1.15,2013-05-25 07:12:00,
2013-05-25 02:22:00,67.6,64.6,30.07,SSE,156,9.0,9.0,90,0.00,,,0.00,Wunderground v.1.15,2013-05-25 07:22:00,
2013-05-25 02:32:00,67.6,64.6,30.07,SSE,160,9.0,25.0,90,0.00,,,0.00,Wunderground v.1.15,2013-05-25 07:32:00,
2013-05-25 02:42:00,67.7,64.7,30.07,SSE,163,9.0,25.0,90,0.00,,,0.00,Wunderground v.1.15,2013-05-25 07:42:00,
2013-05-25 02:52:00,67.8,64.8,30.07,SE,146,10.0,25.0,90,0.00,,,0.00,Wunderground v.1.15,2013-05-25 07:52:00,
2013-05-25 03:02:00,67.9,65.2,30.07,SSE,153,10.0,10.0,91,0.00,,,0.00,Wunderground v.1.15,2013-05-25 08:02:00,
2013-05-25 03:12:00,67.9,65.2,30.07,SSW,197,10.0,10.0,91,0.00,,,0.00,Wunderground v.1.15,2013-05-25 08:12:00,
2013-05-25 03:22:00,68.2,65.8,30.07,SE,127,10.0,10.0,92,0.00,,,0.00,Wunderground v.1.15,2013-05-25 08:22:00,
2013-05-25 03:32:00,68.4,66.0,30.07,SSW,203,10.0,25.0,92,0.00,,,0.00,Wunderground v.1.15,2013-05-25 08:32:00,
2013-05-25 03:42:00,68.4,66.0,30.07,South,170,12.0,12.0,92,0.00,,,0.00,Wunderground v.1.15,2013-05-25 08:42:00,
2013-05-25 03:52:00,68.3,65.9,30.07,South,187,11.0,25.0,92,0.00,,,0.00,Wunderground v.1.15,2013-05-25 08:52:00,
2013-05-25 04:02:00,68.1,66.0,30.08,SSW,203,10.0,25.0,93,0.00,,,0.00,Wunderground v.1.15,2013-05-25 09:02:00,
2013-05-25 04:12:00,68.1,66.0,30.09,South,190,11.0,11.0,93,0.00,,,0.00,Wunderground v.1.15,2013-05-25 09:12:00,
2013-05-25 04:22:00,68.0,65.9,30.09,SSE,153,10.0,10.0,93,0.00,,,0.00,Wunderground v.1.15,2013-05-25 09:22:00,
2013-05-25 04:31:00,67.9,66.1,30.09,South,182,10.0,10.0,94,0.00,,,0.00,Wunderground v.1.15,2013-05-25 09:31:00,
2013-05-25 04:41:00,67.9,66.1,30.09,SSW,204,8.0,25.0,94,0.00,,,0.00,Wunderground v.1.15,2013-05-25 09:41:00,
2013-05-25 04:52:00,67.8,65.7,30.10,SSW,197,9.0,25.0,93,0.00,,,0.00,Wunderground v.1.15,2013-05-25 09:52:00,
2013-05-25 05:02:00,67.6,65.5,30.10,SE,142,9.0,9.0,93,0.00,,,0.00,Wunderground v.1.15,2013-05-25 10:02:00,
2013-05-25 05:11:00,67.2,65.1,30.10,SE,138,9.0,9.0,93,0.00,,,0.00,Wunderground v.1.15,2013-05-25 10:11:00,
2013-05-25 05:21:00,66.9,65.1,30.09,South,185,8.0,8.0,94,0.00,,,0.00,Wunderground v.1.15,2013-05-25 10:21:00,
2013-05-25 05:31:00,66.7,64.9,30.09,South,180,8.0,25.0,94,0.00,,,0.00,Wunderground v.1.15,2013-05-25 10:31:00,
2013-05-25 05:42:00,66.4,64.3,30.09,SSE,153,8.0,8.0,93,0.00,,,0.00,Wunderground v.1.15,2013-05-25 10:42:00,
2013-05-25 05:52:00,66.1,64.3,30.09,SE,141,6.0,25.0,94,0.00,,,0.00,Wunderground v.1.15,2013-05-25 10:52:00,
2013-05-25 06:02:00,65.9,63.8,30.08,SSE,167,7.0,25.0,93,0.00,,,0.00,Wunderground v.1.15,2013-05-25 11:02:00,
2013-05-25 06:12:00,65.7,63.6,30.08,SSE,150,5.0,25.0,93,0.00,,,0.00,Wunderground v.1.15,2013-05-25 11:12:00,
2013-05-25 06:22:00,65.7,63.6,30.08,South,173,6.0,25.0,93,0.00,,,0.00,Wunderground v.1.15,2013-05-25 11:22:00,
2013-05-25 06:32:00,65.7,63.3,30.08,South,183,5.0,5.0,92,0.00,,,0.00,Wunderground v.1.15,2013-05-25 11:32:00,
2013-05-25 06:42:00,65.5,63.1,30.08,South,169,4.0,25.0,92,0.00,,,0.00,Wunderground v.1.15,2013-05-25 11:42:00,
2013-05-25 06:52:00,65.2,62.8,30.09,South,191,4.0,25.0,92,0.00,,,0.00,Wunderground v.1.15,2013-05-25 11:52:00,
2013-05-25 07:02:00,65.0,62.9,30.09,SSE,149,5.0,25.0,93,0.00,,,0.00,Wunderground v.1.15,2013-05-25 12:02:00,
2013-05-25 07:12:00,65.1,62.7,30.09,SSE,154,7.0,25.0,92,0.00,,,0.00,Wunderground v.1.15,2013-05-25 12:12:00,
2013-05-25 07:22:00,65.6,62.9,30.09,SSE,148,6.0,25.0,91,0.00,,,0.00,Wunderground v.1.15,2013-05-25 12:22:00,
2013-05-25 07:32:00,66.0,63.0,30.09,SSE,163,8.0,8.0,90,0.00,,,0.00,Wunderground v.1.15,2013-05-25 12:32:00,
2013-05-25 07:42:00,67.0,63.3,30.09,South,170,8.0,25.0,88,0.00,,,0.00,Wunderground v.1.15,2013-05-25 12:42:00,
2013-05-25 07:52:00,67.1,63.1,30.09,SE,138,10.0,25.0,87,0.00,,,0.00,Wunderground v.1.15,2013-05-25 12:52:00,
2013-05-25 08:02:00,67.2,63.2,30.10,SSE,153,10.0,10.0,87,0.00,,,0.00,Wunderground v.1.15,2013-05-25 13:02:00,
2013-05-25 08:12:00,67.7,63.0,30.10,South,183,10.0,25.0,85,0.00,,,0.00,Wunderground v.1.15,2013-05-25 13:12:00,
2013-05-25 08:22:00,67.9,63.2,30.10,South,176,10.0,10.0,85,0.00,,,0.00,Wunderground v.1.15,2013-05-25 13:22:00,
2013-05-25 08:32:00,68.6,63.2,30.09,SSE,166,9.0,25.0,83,0.00,,,0.00,Wunderground v.1.15,2013-05-25 13:32:00,
2013-05-25 08:42:00,68.8,63.1,30.09,SSE,155,12.0,25.0,82,0.00,,,0.00,Wunderground v.1.15,2013-05-25 13:42:00,
2013-05-25 08:51:00,69.2,63.1,30.08,South,187,12.0,12.0,81,0.00,,,0.00,Wunderground v.1.15,2013-05-25 13:51:00,
2013-05-25 09:01:00,69.5,63.8,30.08,SSE,150,13.0,25.0,82,0.00,,,0.00,Wunderground v.1.15,2013-05-25 14:01:00,
2013-05-25 09:11:00,69.9,63.4,30.08,South,170,13.0,25.0,80,0.00,,,0.00,Wunderground v.1.15,2013-05-25 14:11:00,
2013-05-25 09:21:00,70.5,64.0,30.08,SSE,166,14.0,25.0,80,0.00,,,0.00,Wunderground v.1.15,2013-05-25 14:21:00,
2013-05-25 09:31:00,71.4,64.2,30.08,SSE,167,11.0,11.0,78,0.00,,,0.00,Wunderground v.1.15,2013-05-25 14:31:00,
2013-05-25 09:41:00,71.5,63.9,30.07,SSW,200,13.0,25.0,77,0.00,,,0.00,Wunderground v.1.15,2013-05-25 14:41:00,
2013-05-25 09:51:00,71.9,63.9,30.08,SSW,210,13.0,25.0,76,0.00,,,0.00,Wunderground v.1.15,2013-05-25 14:51:00,
2013-05-25 10:02:00,71.3,63.7,30.08,SW,224,13.0,13.0,77,0.00,,,0.00,Wunderground v.1.15,2013-05-25 15:02:00,
2013-05-25 10:12:00,72.4,63.6,30.07,SSW,207,12.0,25.0,74,0.00,,,0.00,Wunderground v.1.15,2013-05-25 15:12:00,
2013-05-25 10:22:00,72.7,63.5,30.07,SW,214,14.0,25.0,73,0.00,,,0.00,Wunderground v.1.15,2013-05-25 15:22:00,
2013-05-25 10:32:00,73.3,63.7,30.07,SSE,156,14.0,14.0,72,0.00,,,0.00,Wunderground v.1.15,2013-05-25 15:32:00,
2013-05-25 10:42:00,74.0,63.6,30.07,SSW,204,15.0,25.0,70,0.00,,,0.00,Wunderground v.1.15,2013-05-25 15:42:00,
2013-05-25 10:52:00,74.4,64.0,30.07,SSW,210,16.0,25.0,70,0.00,,,0.00,Wunderground v.1.15,2013-05-25 15:52:00,
2013-05-25 11:02:00,74.8,64.4,30.06,WSW,249,15.0,15.0,70,0.00,,,0.00,Wunderground v.1.15,2013-05-25 16:02:00,
2013-05-25 11:12:00,75.0,63.7,30.06,SW,229,16.0,16.0,68,0.00,,,0.00,Wunderground v.1.15,2013-05-25 16:12:00,
2013-05-25 11:22:00,76.0,64.2,30.07,SW,217,16.0,25.0,67,0.00,,,0.00,Wunderground v.1.15,2013-05-25 16:22:00,
2013-05-25 11:32:00,75.8,64.9,30.07,SSW,205,16.0,16.0,69,0.00,,,0.00,Wunderground v.1.15,2013-05-25 16:32:00,
2013-05-25 11:42:00,75.2,63.9,30.07,SSW,198,15.0,15.0,68,0.00,,,0.00,Wunderground v.1.15,2013-05-25 16:42:00,
2013-05-25 11:52:00,75.6,65.1,30.07,SSW,208,12.0,12.0,70,0.00,,,0.00,Wunderground v.1.15,2013-05-25 16:52:00,
2013-05-25 12:02:00,76.1,64.8,30.07,SSW,207,13.0,25.0,68,0.00,,,0.00,Wunderground v.1.15,2013-05-25 17:02:00,
2013-05-25 12:12:00,76.5,65.1,30.07,SSW,211,15.0,25.0,68,0.00,,,0.00,Wunderground v.1.15,2013-05-25 17:12:00,
2013-05-25 12:22:00,76.8,65.4,30.07,South,174,13.0,13.0,68,0.00,,,0.00,Wunderground v.1.15,2013-05-25 17:22:00,
2013-05-25 12:32:00,76.9,65.5,30.07,SW,219,14.0,14.0,68,0.00,,,0.00,Wunderground v.1.15,2013-05-25 17:32:00,
2013-05-25 12:41:00,77.8,65.1,30.07,SW,214,10.0,25.0,65,0.00,,,0.00,Wunderground v.1.15,2013-05-25 17:41:00,
2013-05-25 12:51:00,77.3,65.1,30.08,SSW,200,14.0,25.0,66,0.00,,,0.00,Wunderground v.1.15,2013-05-25 17:51:00,
2013-05-25 13:01:00,77.0,65.2,30.08,SSW,197,12.0,25.0,67,0.00,,,0.00,Wunderground v.1.15,2013-05-25 18:01:00,
2013-05-25 13:12:00,77.1,66.1,30.08,SSW,198,11.0,11.0,69,0.00,,,0.00,Wunderground v.1.15,2013-05-25 18:12:00,
2013-05-25 13:22:00,77.4,66.0,30.07,SSW,197,12.0,12.0,68,0.00,,,0.00,Wunderground v.1.15,2013-05-25 18:22:00,
2013-05-25 13:32:00,78.0,66.2,30.06,SSE,166,14.0,14.0,67,0.00,,,0.00,Wunderground v.1.15,2013-05-25 18:32:00,
2013-05-25 13:42:00,78.3,66.0,30.06,SSE,153,13.0,25.0,66,0.00,,,0.00,Wunderground v.1.15,2013-05-25 18:42:00,
2013-05-25 13:52:00,78.1,66.2,30.06,SSE,165,14.0,14.0,67,0.00,,,0.00,Wunderground v.1.15,2013-05-25 18:52:00,
2013-05-25 14:02:00,77.9,66.1,30.06,SSW,203,14.0,14.0,67,0.00,,,0.00,Wunderground v.1.15,2013-05-25 19:02:00,
2013-05-25 14:12:00,78.3,66.4,30.06,SW,231,11.0,25.0,67,0.00,,,0.00,Wunderground v.1.15,2013-05-25 19:12:00,
2013-05-25 14:22:00,77.7,66.3,30.05,SSE,162,14.0,14.0,68,0.00,,,0.00,Wunderground v.1.15,2013-05-25 19:22:00,
2013-05-25 14:32:00,78.2,66.3,30.05,SSE,150,13.0,25.0,67,0.00,,,0.00,Wunderground v.1.15,2013-05-25 19:32:00,
2013-05-25 14:42:00,79.1,66.3,30.04,SSE,149,11.0,11.0,65,0.00,,,0.00,Wunderground v.1.15,2013-05-25 19:42:00,
2013-05-25 14:52:00,79.5,67.1,30.04,SE,142,11.0,25.0,66,0.00,,,0.00,Wunderground v.1.15,2013-05-25 19:52:00,
2013-05-25 15:02:00,79.4,66.2,30.03,SSE,163,12.0,25.0,64,0.00,,,0.00,Wunderground v.1.15,2013-05-25 20:02:00,
2013-05-25 15:12:00,79.9,66.6,30.03,SW,218,12.0,25.0,64,0.00,,,0.00,Wunderground v.1.15,2013-05-25 20:12:00,
2013-05-25 15:22:00,79.5,66.3,30.02,South,173,13.0,13.0,64,0.00,,,0.00,Wunderground v.1.15,2013-05-25 20:22:00,
2013-05-25 15:32:00,79.9,67.1,30.02,SE,129,12.0,25.0,65,0.00,,,0.00,Wunderground v.1.15,2013-05-25 20:32:00,
2013-05-25 15:42:00,80.6,65.9,30.01,South,176,14.0,25.0,61,0.00,,,0.00,Wunderground v.1.15,2013-05-25 20:42:00,
2013-05-25 15:51:00,81.0,66.3,30.01,South,173,16.0,16.0,61,0.00,,,0.00,Wunderground v.1.15,2013-05-25 20:51:00,
2013-05-25 16:01:00,81.0,67.2,30.00,SE,146,13.0,25.0,63,0.00,,,0.00,Wunderground v.1.15,2013-05-25 21:01:00,
2013-05-25 16:11:00,81.1,67.3,30.00,SSE,161,13.0,25.0,63,0.00,,,0.00,Wunderground v.1.15,2013-05-25 21:11:00,
2013-05-25 16:21:00,81.1,66.8,29.99,SE,131,15.0,15.0,62,0.00,,,0.00,Wunderground v.1.15,2013-05-25 21:21:00,
2013-05-25 16:31:00,80.9,66.7,29.98,SE,142,15.0,15.0,62,0.00,,,0.00,Wunderground v.1.15,2013-05-25 21:31:00,
2013-05-25 16:41:00,81.5,67.2,29.98,SE,129,14.0,14.0,62,0.00,,,0.00,Wunderground v.1.15,2013-05-25 21:41:00,
2013-05-25 16:52:00,81.9,67.1,29.98,SSE,149,13.0,13.0,61,0.00,,,0.00,Wunderground v.1.15,2013-05-25 21:52:00,
2013-05-25 17:02:00,81.4,67.1,29.97,SSE,149,15.0,25.0,62,0.00,,,0.00,Wunderground v.1.15,2013-05-25 22:02:00,
2013-05-25 17:12:00,81.2,67.4,29.97,SSE,154,15.0,15.0,63,0.00,,,0.00,Wunderground v.1.15,2013-05-25 22:12:00,
2013-05-25 17:22:00,80.4,67.1,29.97,SSE,153,16.0,16.0,64,0.00,,,0.00,Wunderground v.1.15,2013-05-25 22:22:00,
2013-05-25 17:32:00,80.7,67.4,29.96,SSE,150,14.0,25.0,64,0.00,,,0.00,Wunderground v.1.15,2013-05-25 22:32:00,
2013-05-25 17:42:00,81.2,66.9,29.96,SSW,211,15.0,25.0,62,0.00,,,0.00,Wunderground v.1.15,2013-05-25 22:42:00,
2013-05-25 17:52:00,80.9,65.7,29.96,South,173,17.0,25.0,60,0.00,,,0.00,Wunderground v.1.15,2013-05-25 22:52:00,
2013-05-25 18:02:00,81.3,66.1,29.95,SSW,205,15.0,25.0,60,0.00,,,0.00,Wunderground v.1.15,2013-05-25 23:02:00,
2013-05-25 18:12:00,80.7,66.0,29.95,SSW,205,16.0,25.0,61,0.00,,,0.00,Wunderground v.1.15,2013-05-25 23:12:00,
2013-05-25 18:22:00,81.0,66.3,29.95,SSE,163,16.0,16.0,61,0.00,,,0.00,Wunderground v.1.15,2013-05-25 23:22:00,
2013-05-25 18:32:00,80.6,65.9,29.94,SW,215,17.0,25.0,61,0.00,,,0.00,Wunderground v.1.15,2013-05-25 23:32:00,
2013-05-25 18:42:00,80.4,66.6,29.94,SSE,161,17.0,17.0,63,0.00,,,0.00,Wunderground v.1.15,2013-05-25 23:42:00,
2013-05-25 18:52:00,80.0,67.6,29.94,South,170,13.0,25.0,66,0.00,,,0.00,Wunderground v.1.15,2013-05-25 23:52:00,
2013-05-25 19:02:00,79.9,67.5,29.93,ESE,120,13.0,13.0,66,0.00,,,0.00,Wunderground v.1.15,2013-05-26 00:02:00,
2013-05-25 19:12:00,79.7,67.3,29.93,SSE,157,13.0,25.0,66,0.00,,,0.00,Wunderground v.1.15,2013-05-26 00:12:00,
2013-05-25 19:22:00,79.3,66.1,29.93,SSE,152,14.0,25.0,64,0.00,,,0.00,Wunderground v.1.15,2013-05-26 00:22:00,
2013-05-25 19:31:00,78.9,66.1,29.93,South,174,13.0,25.0,65,0.00,,,0.00,Wunderground v.1.15,2013-05-26 00:31:00,
2013-05-25 19:41:00,78.7,65.9,29.93,SSW,194,12.0,25.0,65,0.00,,,0.00,Wunderground v.1.15,2013-05-26 00:41:00,
2013-05-25 19:51:00,78.3,66.4,29.93,SE,140,10.0,25.0,67,0.00,,,0.00,Wunderground v.1.15,2013-05-26 00:51:00,
2013-05-25 20:01:00,77.9,67.3,29.93,South,191,12.0,12.0,70,0.00,,,0.00,Wunderground v.1.15,2013-05-26 01:01:00,
2013-05-25 20:12:00,76.8,67.1,29.93,SSW,207,11.0,25.0,72,0.00,,,0.00,Wunderground v.1.15,2013-05-26 01:12:00,
2013-05-25 20:22:00,76.0,67.1,29.93,SSE,158,10.0,10.0,74,0.00,,,0.00,Wunderground v.1.15,2013-05-26 01:22:00,
2013-05-25 20:32:00,75.6,67.1,29.93,SW,219,10.0,25.0,75,0.00,,,0.00,Wunderground v.1.15,2013-05-26 01:32:00,
2013-05-25 20:42:00,75.3,67.2,29.94,SSE,155,9.0,25.0,76,0.00,,,0.00,Wunderground v.1.15,2013-05-26 01:42:00,
2013-05-25 20:52:00,75.0,67.3,29.95,SSW,207,10.0,10.0,77,0.00,,,0.00,Wunderground v.1.15,2013-05-26 01:52:00,
2013-05-25 21:02:00,74.6,66.9,29.96,South,174,9.0,9.0,77,0.00,,,0.00,Wunderground v.1.15,2013-05-26 02:02:00,
2013-05-25 21:12:00,74.1,67.2,29.96,SSE,156,8.0,8.0,79,0.00,,,0.00,Wunderground v.1.15,2013-05-26 02:12:00,
2013-05-25 21:22:00,73.7,67.1,29.96,SSW,194,7.0,25.0,80,0.00,,,0.00,Wunderground v.1.15,2013-05-26 02:22:00,
2013-05-25 21:32:00,73.3,67.1,29.96,SE,145,6.0,6.0,81,0.00,,,0.00,Wunderground v.1.15,2013-05-26 02:32:00,
2013-05-25 21:42:00,72.8,67.0,29.96,South,174,6.0,25.0,82,0.00,,,0.00,Wunderground v.1.15,2013-05-26 02:42:00,
2013-05-25 21:52:00,72.4,66.9,29.96,SE,146,6.0,6.0,83,0.00,,,0.00,Wunderground v.1.15,2013-05-26 02:52:00,
2013-05-25 22:02:00,72.1,66.6,29.97,SE,134,7.0,25.0,83,0.00,,,0.00,Wunderground v.1.15,2013-05-26 03:02:00,
2013-05-25 22:12:00,71.8,66.7,29.97,SSE,152,6.0,6.0,84,0.00,,,0.00,Wunderground v.1.15,2013-05-26 03:12:00,
2013-05-25 22:22:00,71.4,66.7,29.97,SSE,153,7.0,25.0,85,0.00,,,0.00,Wunderground v.1.15,2013-05-26 03:22:00,
2013-05-25 22:32:00,71.3,66.6,29.98,SE,143,8.0,25.0,85,0.00,,,0.00,Wunderground v.1.15,2013-05-26 03:32:00,
2013-05-25 22:42:00,71.2,66.5,29.98,SSE,160,8.0,8.0,85,0.00,,,0.00,Wunderground v.1.15,2013-05-26 03:42:00,
2013-05-25 22:51:00,71.0,66.3,29.98,SSE,161,8.0,8.0,85,0.00,,,0.00,Wunderground v.1.15,2013-05-26 03:51:00,
2013-05-25 23:01:00,70.9,66.2,29.98,SE,135,9.0,25.0,85,0.00,,,0.00,Wunderground v.1.15,2013-05-26 04:01:00,
2013-05-25 23:11:00,70.5,66.1,29.98,SE,143,8.0,8.0,86,0.00,,,0.00,Wunderground v.1.15,2013-05-26 04:11:00,
2013-05-25 23:21:00,70.3,65.9,29.97,SE,135,8.0,8.0,86,0.00,,,0.00,Wunderground v.1.15,2013-05-26 04:21:00,
2013-05-25 23:31:00,69.9,65.9,29.98,ESE,120,7.0,25.0,87,0.00,,,0.00,Wunderground v.1.15,2013-05-26 04:31:00,
2013-05-25 23:41:00,69.6,65.9,29.98,SW,226,7.0,25.0,88,0.00,,,0.00,Wunderground v.1.15,2013-05-26 04:41:00,
2013-05-25 23:52:00,69.5,65.8,29.98,SE,145,8.0,8.0,88,0.00,,,0.00,Wunderground v.1.15,2013-05-26 04:52:00,